Location: Caltech
(34.1382°N, 118.1253°W)
Time: 12:56:25
(UTC-08:00)

PANSAT - Visible Passes

Search period start: 23 February 2017 00:00
Search period end: 05 March 2017 00:00
Orbit: 477 x 485 km, 28.5° (Epoch: 23 February)

Date Brightness Start Highest point End Pass type
(mag) Time Alt. Az. Time Alt. Az. Time Alt. Az.
23 Feb 9.7 19:16:19 10° SSW 19:18:10 16° S 19:18:10 16° S visible
24 Feb 9.5 18:46:56 10° SSW 18:49:25 17° SSE 18:50:39 14° SE visible
25 Feb 9.6 18:17:33 10° SSW 18:20:03 17° SSE 18:22:33 10° ESE visible
25 Feb 10.0 19:56:04 10° WSW 19:57:15 18° SW 19:57:15 18° SW visible
26 Feb 8.8 19:26:41 10° WSW 19:29:40 31° S 19:29:40 31° S visible
27 Feb 8.7 18:57:19 10° WSW 19:00:44 32° S 19:02:02 25° SE visible
28 Feb 8.7 18:27:57 10° WSW 18:31:23 32° S 18:34:24 12° ESE visible
28 Feb 10.2 20:07:31 10° WSW 20:08:34 16° WSW 20:08:34 16° WSW visible
01 Mar 9.0 19:38:09 10° WSW 19:40:55 29° SSW 19:40:55 29° SSW visible
02 Mar 8.8 19:08:47 10° WSW 19:12:11 31° S 19:13:17 26° SSE visible
03 Mar 8.9 18:39:26 10° WSW 18:42:48 31° S 18:45:41 13° SE visible
04 Mar 10.0 19:50:33 10° WSW 19:52:17 15° SSW 19:52:17 15° SSW visible
